THORAD AGENA D DEB, 14469

Orbit data source: Space-Track

THORAD AGENA D DEB, 14469 is space debris in SSO originally from a launch on Wed, 08 Apr 1970 UTC launched from the Air Force Western Test Range (AFWTR). Debris objects in space refer to the collection of defunct objects orbiting the Earth. Examples of debris include non-operational satellites, rocket bodies, and fragments generated from explosions, collisions, or faulty payload assembly.

Loading next visibility...
Identifier
14469, 1970-025NV
Orbit
SSO
Country
Flag of USUS
Related business
Manufacturer
Unknown
Mission
Spacecraft
Bus & Motor
Unknown
Mass
Unknown
Launch date (UTC)
1970-04-08 (56 years ago)
Launch vehicle
Unknown
Launch site
Air Force Western Test Range (AFWTR)
Object type
Payload
Rocket body
Debris
Shape & HBR
Unknown shape, 1.1 m
Radar Cross Section
Medium (>0.1 m² and <1 m²)

Expand to show TLE details & history
Last TLE update: 1 day ago

TLE from 1 day ago
0 THORAD AGENA D DEB
1 14469U 70025NV  26256.30683005  .00000689  00000-0  18503-2 0  9996
2 14469 101.6091 192.7564 0272348 324.5525 190.8477 13.07458334157423
Epoch: 2026-09-13T07:21Z
TLE epoch observation values (Epoch: 2026-09-13T07:21:50.116Z)
Latitude
24.64474°
Longitude
-84.62417°
Altitude
1,439.566 km
Speed
7.048 km/s
True Right ascension
01h 12m 33s
True Declination
24° 31' 34"
Sunlit
Object was in full shadow at epoch
Visualization orbit readout
Latitude
Unknown
Longitude
Unknown
Altitude
Unknown
Speed
Unknown
Apparent Right ascension
Unknown
Apparent Declination
Unknown
Sunlit
N/A
Visualization observer readout
Local Sidereal Time
03:09:25
Azimuth
Unknown
Elevation
Unknown
Doppler factor
Unknown
Orbital elements
Apogee altitude
1,437.687 km
Perigee altitude
1,023.249 km
Semi-major axis
7,608.605 km
Eccentricity
0.02723
Inclination
101.6091°
RAAN
192.7564°
Arg. of periapsis
324.5525°
True anomaly
190.27939°
Mean anomaly
190.8477°
Eccentric anomaly
190.56168°
Mean motion
3.27029 °/min
Orbital period
110.08 mins
BSTAR
0.0018503
Loading maneuver chart data...
Computing Atmospheric mass density...

Documentation

Showing up to 5 results
|